OPS 7218 (TRANSIT 16)

Last updated on Fri Jun 19 2026 20:04:44 GMT+0000 (Coordinated Universal Time)

1 02807U 67048A 26170.49244414 .00000104 00000+0 14558-3 0 9990 2 02807 89.6718 347.8220 0018265 292.3258 93.4690 13.50766640908249
UTC large
Height (km)
Speed (km/s)
/
Latitude / Longitude
Inclination (degrees)
Orbital Period (minutes)
Azimuth
Elevation
Range (km)
Doppler Factor

Next 0 passes for location: London (51.5072 / 0.1276)

Sorry there are no passes over London.
OPS 7218 (TRANSIT 16)